Location: Unspecified
(0.0000°N, 0.0000°E)
Time: 23:57:32
(UTC+00:00)

Envisat - Pass Details

Date: 24 June 2022
Orbit: 764 x 765 km, 98.2° (Epoch: 28 June)

Event Time Altitude Azimuth Distance (km) Brightness Sun altitude
Rises 03:39:06 0° 26° (NNE) 3,213 6.9 -32.5°
Reaches altitude 10° 03:41:32 10° 34° (NE) 2,290 6.1 -32.0°
Maximum altitude 03:46:13 39° 102° (ESE) 1,131 4.1 -30.9°
Enters shadow 03:46:56 37° 123° (ESE) 1,172 4.1 -30.8°
